Regional Weather Roundup
Issued by NWS

Home | Current Version | Previous Version | Graphics & Text | Print | Product List | Glossary On
Versions: 1 2 3 4 5 6 7 8 9 10 11 12 13 14 15 16 17 18 19 20 21 22 23 24 25 26 27 28 29 30 31 32 33 34 35 36 37 38 39 40 41 42 43 44 45 46 47 48 49 50
000
ASUS45 KSLC 261710
RWRUT

UTAH REGIONAL WEATHER ROUNDUP
NATIONAL WEATHER SERVICE SALT LAKE CITY UT
1100 AM MDT WED APR 26 2017

UTZ001>011-023>025-261800-

NORTHERN UTAH

CITY           SKY/WX    TMP DP  RH WIND       PRES   REMARKS
BRIGHAM CITY   CLOUDY    49  33  54 SW9G16    29.89F
DUGWAY         PTSUNNY   52  29  41 SW5       29.91S
HILL AFB       PTSUNNY   48  33  55 W10       29.89F
LOGAN          CLOUDY    48  35  60 VRB3      29.88R
OGDEN          PTSUNNY   48  34  58 S9        29.89S
SALT LAKE CITY CLOUDY    52  36  54 S10       29.90S
TOOELE VALLEY  CLOUDY    52  32  46 SE6       29.91F
WENDOVER       PTSUNNY   54  31  41 E7        29.88F
HEBER CITY     CLOUDY    43  30  61 CALM      29.91S
WEST JORDAN    CLOUDY    51  43  74 SE10      29.92S

$$

UTZ011>015-024>027-261800-

CENTRAL/NORTHEAST UTAH

CITY           SKY/WX    TMP DP  RH WIND       PRES   REMARKS
PROVO AIRPORT  CLOUDY    47  32  56 CALM      29.94S
MOAB/CANYONLAN CLOUDY    52  27  38 W8        29.91S
DELTA          CLOUDY    50  27  40 S12G18    29.93S
PRICE          CLOUDY    47  25  42 S6        29.92F
ROOSEVELT      CLOUDY    50  30  46 W10G21    29.90F
VERNAL         CLOUDY    48  32  53 SW5       29.89F

$$

UTZ013>016-019>022-027-261800-

SOUTHERN UTAH

CITY           SKY/WX    TMP DP  RH WIND       PRES   REMARKS
BRYCE CANYON   CLOUDY    47  17  30 NW9G22    30.00R
CEDAR CITY     CLOUDY    47  28  47 CALM      29.97R
MILFORD        CLOUDY    47  26  44 S15       29.94F
ST GEORGE      CLOUDY    59  22  24 CALM      29.95R
HANKSVILLE     CLOUDY    54  25  32 CALM      29.95F
BLANDING       PTSUNNY   50  23  34 SE6       30.01S

$$

REGIONAL REPORTS     COLORADO/ARIZONA

CITY           SKY/WX    TMP DP  RH WIND       PRES   REMARKS
CRAIG, CO      CLOUDY    45  31  58 SW9       29.88F
GRAND JUNCTION CLOUDY    51  34  52 CALM      29.91S
RIFLE, CO      PTSUNNY   48  32  53 VRB3      29.91F
MONTROSE, CO   CLOUDY    49  29  46 N8        29.94F
CORTEZ, CO     CLOUDY    52  28  39 MISG      29.93S
COLORADO CITY    N/A     61  21  21 N3        29.98F
PAGE, AZ       MOSUNNY   58  21  24 CALM      29.94S
GRAND CANYON   SUNNY     51  16  24 MISG      30.01S
KINGMAN, AZ    SUNNY     69  18  14 VRB5      29.95S
FLAGSTAFF, AZ  SUNNY     53   2  12 W8G17     30.01S

$$

REGIONAL REPORTS    NEVADA/IDAHO/WYOMING

CITY           SKY/WX    TMP DP  RH WIND       PRES   REMARKS
LAS VEGAS, NV  PTSUNNY   71  20  14 VRB3      29.88S
ELY, NY        PTSUNNY   47  29  49 SE5       29.95F
ELKO, NV       CLOUDY    47  37  68 SW9       29.89F
POCATELLO, ID  PTSUNNY   49  37  63 SW18      29.83F
BURLEY, ID     CLOUDY    50  37  61 W13       29.82F
FORT BRIDGER,  CLOUDY    43  30  62 W18G26    29.90F
EVANSTON, WY   CLOUDY    40  29  64 SW16G26   29.88F WCI  31
ROCK SPRINGS,  CLOUDY    41  31  67 W23       29.86S
KEMMERER, WY     N/A     36  30  80 W17G24    29.86S WCI  25

$$



USA.gov is the U.S. government's official web portal to all federal, state and local government web resources and services.